www.pogodaiklimat.ru

Погода и климат >> Архив погоды >> Индонезия >> Сиребон


ПОГОДА в Сиребоне

  • Прогноз погоды в Сиребоне
  • Монитор погоды в Сиребоне

АРХИВ ПОГОДЫ в Сиребоне

Время (UTC), дата Ветер
(напр.,м/с)
 
Видим.   Явления Облачность Т
(С)
Тd
(С)
f
(%)
Тe
(С)
Тes
(С)
Комфортность P
(гПа)
Po
(гПа)
Тmin
(С)
Tmax
(С)
R
(мм)
R24
(мм)
S
(см)
18 14.09 штиль 0 8000 м 5/0
[Ci fib]
+24.3 +20.0 77 +30 +30 очень
душно
1012.1 1007.0
21 14.09 штиль 0 8000 м 5/0
[Ci fib]
+21.6 +19.7 89 +27 +27 душно 1011.7 1006.6
00 15.09 Ю 1 8000 м 8/1 600 м
[Cu hum Ac trans Ci fib]
+22.3 +19.2 83 +28 +30 душно 1012.6 1007.6 +21.6
03 15.09 штиль 0 10 км 8/3 600 м
[Cu hum Ac trans Ci fib]
+30.4 +19.8 53 +37 +47 очень
душно
1012.6 1007.5
06 15.09 В 4 10 км 8/3 600 м
[Cu hum Ci fib]
+34.0 +19.5 43 +40 +48 очень
душно
1009.2 1004.2
09 15.09 В 4 10 км 6/1 600 м
[Cu hum Ci fib]
+31.4 +21.8 57 +40 +42 очень
душно
1008.3 1003.3
12 15.09 В 2 9000 м 6/1 600 м
[Cu hum Ci fib]
+27.7 +22.4 73 +36 +36 очень
душно
1010.6 1005.5 +35.1
15 15.09 штиль 0 9000 м 8/4 600 м
[Sc Ac trans Ci fib]
+26.4 +22.5 79 +35 +35 очень
душно
1011.7 1006.7
18 15.09 штиль 0 8000 м слаб. дождь 10/6 570 м
[Sc As op]
+25.2 +22.1 83 +33 +33 очень
душно
1011.3 1006.2 0.0
21 15.09 ЮЗ 1 8000 м 8/4 600 м
[Sc As trans Ci fib]
+24.2 +19.8 76 +29 +29 душно 1010.8 1005.8
00 16.09 Ю 2 9000 м {дождь} 6/3 600 м
[Sc Ac trans Ci fib]
+25.0 +20.4 76 +31 +32 очень
душно
1011.8 1006.7 +22.3 0.0
03 16.09 В 3 10 км 8/4 600 м
[Sc As trans Ci fib]
+32.0 +21.0 52 +39 +45 очень
душно
1011.9 1006.8
06 16.09 В 3 10 км 5/4 600 м
[Cu hum Ci fib]
+34.0 +21.5 48 +42 +51 опасность
перегрева
1009.4 1004.3
09 16.09 В 5 10 км 4/0
[Ci fib]
+32.0 +21.4 54 +40 +42 очень
душно
1008.3 1003.3
12 16.09 В 3 8000 м 4/0
[Ci fib]
+27.8 +23.1 76 +37 +37 очень
душно
1010.2 1005.1 +34.4
15 16.09 штиль 0 8000 м 6/3 600 м
[Sc Ci fib]
+26.1 +23.0 83 +35 +35 очень
душно
1012.0 1007.0
18 16.09 штиль 0 8000 м 5/1 600 м
[Sc Ci fib]
+25.3 +21.0 77 +32 +32 очень
душно
1011.3 1006.2
21 16.09 ЮВ 1 8000 м 5/1 600 м
[Sc Ci fib]
+23.5 +20.3 82 +29 +29 душно 1011.1 1006.0
00 17.09 ЮВ 1 9000 м 6/1 600 м
[Sc As trans Cs]
+23.8 +20.5 82 +30 +31 очень
душно
1013.0 1007.9 +22.6
03 17.09 ЮВ 2 9000 м 9/3 600 м
[Cu hum As trans Ci fib]
+29.8 +21.7 62 +38 +46 очень
душно
1013.1 1008.0
06 17.09 В 3 9000 м 4/3 600 м
[Cu hum As trans Ci fib]
+33.8 +22.5 52 +43 +54 опасность
перегрева
1010.1 1005.1
09 17.09 В 3 10 км 4/1 600 м
[Sc Ci fib]
+32.2 +21.9 55 +41 +44 опасность
перегрева
1009.4 1004.3
12 17.09 В 2 9000 м 4/1 600 м
[Sc Ci fib]
+28.0 +23.3 76 +38 +38 очень
душно
1011.9 1006.8 +34.2
15 17.09 штиль 0 8000 м 4/4 600 м
[Sc As trans Ci fib]
+27.2 +23.3 79 +37 +37 очень
душно
1012.9 1007.9
18 17.09 Ю 3 7000 м 4/4 600 м
[Sc As trans Ci fib]
+26.0 +20.9 74 +33 +33 очень
душно
1012.1 1007.0
21 17.09 штиль 0 7000 м 4/4 600 м
[Sc As trans Ci fib]
+24.8 +19.6 73 +30 +30 душно 1012.1 1007.0
00 18.09 штиль 0 10 км 5/3 600 м
[Sc As trans Ci fib]
+24.2 +19.5 75 +29 +31 душно 1013.9 1008.8 +23.6
03 18.09 ЮВ 1 10 км 8/4 600 м
[Cu hum As trans Ci fib]
+31.2 +21.7 57 +40 +48 очень
душно
1014.1 1009.0
06 18.09 В 3 10 км 8/4 600 м
[Cu hum As trans Ci fib]
+35.2 +21.6 45 +43 +49 опасность
перегрева
1010.7 1005.6
09 18.09 СВ 3 10 км 5/1 600 м
[Cu hum Ci fib]
+32.4 +22.5 56 +42 +45 опасность
перегрева
1009.5 1004.4
12 18.09 В 1 9000 м 4/1 600 м
[Sc Ci fib]
+28.2 +23.2 74 +38 +38 очень
душно
1012.5 1007.5 +35.4
15 18.09 Ю 3 9000 м 4/1 600 м
[Sc As trans Ci fib]
+26.4 +18.1 60 +31 +31 душно 1013.2 1008.2
18 18.09 Ю 2 9000 м 4/1 600 м
[Sc As trans Ci fib]
+24.8 +18.9 70 +30 +30 душно 1012.2 1007.2
21 18.09 Ю 1 9000 м 4/1 600 м
[Sc As trans Ci fib]
+23.4 +18.3 73 +29 +29 душно 1012.3 1007.2
00 19.09 Ю 2 10 км 3/1 600 м
[Cu hum Cs]
+25.0 +18.5 67 +30 +31 душно 1013.7 1008.6 +23.4
03 19.09 Ю 4 10 км 5/1 600 м
[Cu hum Ci fib]
+31.0 +18.5 47 +36 +46 очень
душно
1013.6 1008.5
06 19.09 Ю 2 10 км 5/3 600 м
[Cu hum Ci fib]
+33.8 +19.2 42 +39 +52 опасность
солнечного
удара
1010.2 1005.2
09 19.09 В 3 10 км 4/1 600 м
[Cu hum Ci fib]
+32.8 +22.3 54 +42 +45 опасность
перегрева
1009.3 1004.3
12 19.09 В 1 10 км 3/1 600 м
[Cu hum Ci fib]
+28.0 +23.5 77 +38 +38 очень
душно
1011.4 1006.3 +34.7
15 19.09 Ю 2 9000 м 3/1 600 м
[Cu hum Ci fib]
+25.3 +17.7 63 +30 +30 душно 1012.4 1007.4
18 19.09 Ю 3 9000 м 3/1 600 м
[Cu hum Ci fib]
+25.0 +18.0 65 +29 +29 душно 1012.0 1006.9
21 19.09 Ю 3 9000 м 3/0
[Ci fib]
+24.6 +18.4 68 +29 +29 душно 1011.5 1006.5
00 20.09 Ю 3 10 км 3/1 600 м
[Sc Ci fib]
+25.4 +18.3 65 +30 +32 душно 1013.2 1008.2 +24.3
03 20.09 В 3 10 км 6/6 600 м
[Sc Ci fib]
+31.0 +19.9 52 +37 +43 очень
душно
1013.3 1008.3
06 20.09 ЮВ 5 10 км 6/6 600 м
[Sc Ci fib]
+34.2 +18.7 40 +39 +43 очень
душно
1010.5 1005.4
09 20.09 В 5 10 км 5/4 600 м
[Sc Ci fib]
+32.0 +17.5 42 +36 +37 очень
душно
1009.2 1004.2
12 20.09 штиль 0 8000 м 6/5 600 м
[Sc Ci fib]
+27.7 +20.7 66 +35 +35 очень
душно
1011.7 1006.6 +34.8
15 20.09 Ю 2 10 км 3/1 600 м
[Sc Ci fib]
+26.2 +19.8 68 +32 +32 очень
душно
1012.8 1007.7
18 20.09 Ю 3 10 км 3/0
[Ci fib]
+26.0 +18.7 64 +31 +31 очень
душно
1011.7 1006.6
21 20.09 штиль 0 10 км 3/0
[Ci fib]
+23.2 +18.5 75 +29 +29 душно 1011.6 1006.5
00 21.09 Ю 2 10 км 3/0
[Ci fib]
+26.0 +19.0 65 +31 +33 очень
душно
1012.6 1007.5 +22.8
03 21.09 Ю 3 10 км 4/1 600 м
[Cu hum Ci fib]
+31.8 +19.1 47 +37 +49 очень
душно
1013.0 1007.9
06 21.09 В 2 10 км 8/3 600 м
[Cu hum As trans Ci fib]
+26.8 +22.0 75 +35 +44 очень
душно
1010.0 1005.0
09 21.09 В 5 10 км 4/4 600 м
[Sc Ci fib]
+34.4 +20.3 44 +41 +42 опасность
перегрева
1008.5 1003.5
12 21.09 СВ 3 8000 м 4/0
[Ci fib]
+28.8 +22.1 67 +37 +37 очень
душно
1010.5 1005.4 +35.4

 

Местоположение метеостанции Сиребон (Индонезия): широта -6.75 долгота 108.26 высота над уровнем моря 50 м.

В архиве по умолчанию представлена погода в Сиребоне за последнюю неделю. Архивные данные за месяц целиком и за предыдущие месяцы, начиная с января 2011 года, Вы можете получить, выбрав интересующий диапазон дат из раскрывающегося списка и нажав кнопку "Ввод!".


*Определитесь, кто Вы:
робот инопланетянин человек

Внимание! Время в таблицах - всемирное. Для получения местного времени необходимо прибавить поправку, которая равна 7 ч.

Смотрите также архив погоды в соседних городах и на ближайших метеорологических станциях:

Погода в Бандунге (Индонезия) (77 км)
Погода в Тегале (Индонезия) (99 км)
Погода в Чилачапе (Индонезия) (137 км)
Погода в Цитеко (Индонезия) (147 км)
Погода в Джакарта порту (Индонезия) (170 км)
Погода в Джакарте (Индонезия) (170 км)
Погода в Чуруге (Индонезия) (187 км)
Погода в Аэропорту Сукарно-Хатта (Индонезия) (191 км)
Погода в Аэропорту Ахмад Яни (Индонезия) (236 км)
Погода в Семаранге (Индонезия) (239 км)

Пояснения к столбцам:

Ветер - указаны скорость ветра в м/с - средняя за 10 мин, порывы в срок и между сроками (в фигурных скобках) и направление, откуда дует ветер: С - северный, СВ - северо-восточный, В - восточный, ЮВ - юго-восточный, Ю - южный, ЮЗ - юго-западный, З - западный, СЗ - северо-западный.
Видимость - горизонтальная дальность видимости в метрах или километрах. При видимости от 1 до 10 км при отсутствии осадков обычно наблюдается дымка, при ухудшении видимости до 1 км и менее - туман. В сухую погоду видимость может ухудшаться дымом, пылью или мглою.
Явления - указаны атмосферные явления, наблюдавшиеся в срок или в последний час перед сроком; фигурными скобками обозначены явления, наблюдавшиеся между сроками (за 1-3 часа до срока); квадратными скобками обозначены град или гололедные отложения с указанием их диаметра в мм.
Облачность - указаны через наклонную черту общая и нижняя облачность в баллах и высота нижней границы облаков в метрах; квадратными скобками обозначены формы облаков: Ci - перистые, Cs - перисто-слоистые, Cc - перисто-кучевые, Ac - высококучевые, As - высокослоистые, Sc - слоисто-кучевые, Ns - слоисто-дождевые, Cu - кучевые, Cb - кучево-дождевые. Подробнее классификацию облаков см. в Атласе облаков (PDF).
T - Температура воздуха - температура, измеренная на высоте 2 м над землей.
Td - Температура точки росы - температура, при понижении до которой содержащийся в воздухе водяной пар достигнет насыщения.
f - Относительная влажность воздуха - влажноcть воздуха, измеренная на высоте 2 м над землей.
Te - Эффективная температура - температура, которую ощущает одетый по сезону человек в тени. Характеристика душности погоды. При расчете учитывается влияние влажности воздуха и скорости ветра на теплоощущения человека.
Tes - Эффективная температура на солнце - температура, которую ощущает человек, с поправкой на солнечный нагрев. Характеристика знойности погоды. Зависит от высоты солнца над горизонтом, облачности и скорости ветра. Ночью, в пасмурную погоду, а также при ветре 12 м/с и более поправка равна нулю.
P - Атмосферное давление - приведенное к уровню моря атмосферное давление.
Po - Атмосферное давление - измеренное на уровне метеостанции атмосферное давление.
Tmin - Минимальная температура - минимум температуры воздуха на высоте 2 м над землей.
Tmax - Максимальная температура - максимум температуры воздуха на высоте 2 м над землей.
R - Количество осадков - Количество выпавших осадков за период времени, мм. При наведении курсора мыши на число - период времени, за который выпало указанное количество осадков.
R24 - Количество осадков - Количество выпавших осадков за 24 часа, мм.
S - Снежный покров - Высота снежного покрова, см. При наведении курсора мыши на число - состояние снежного покрова и степень покрытия местности в баллах.